Kingsville NAS, TX

5:36 PM CDT on June 28, 2017 (GMT -0500)
Kingsville Naval Air Station

Weather History for KNQI - August, 2014

Change the Weather History Date:

Wednesday, August 27, 2014

  Actual Average Record
Temperature  
Mean Temperature 86 °F -  
Max Temperature 100 °F 91 °F 104 °F (2011)
Min Temperature 75 °F 72 °F 70 °F (2015)
Cooling Degree Days 22    
Growing Degree Days 36 (Base 50)    
Moisture  
Dew Point 74 °F    
Average Humidity 69    
Maximum Humidity 94    
Minimum Humidity 42    
Precipitation  
Precipitation 0.00 in - - ()
Sea Level Pressure  
Sea Level Pressure 29.92 in    
Wind  
Wind Speed 8 mph (NE)    
Max Wind Speed 21 mph    
Max Gust Speed 28 mph    
Visibility 10 miles    
Events      
Averages and records for this station are not official NWS values.
T = Trace of Precipitation, MM = Missing Value Source: NWS Daily Summary

Daily Weather History Graph

Daily Weather History Graph

Search for Another Location

Airport or City:

Trip Planner

Search our weather history database for the weather conditions in past years. The results will help you decide how hot, cold, wet, or windy it might be!

Date:

Astronomy

Aug. 27, 2014 Rise Set
Actual Time 7:07 AM CDT 7:57 PM CDT
Civil Twilight 6:44 AM CDT 8:21 PM CDT
Nautical Twilight 6:15 AM CDT 8:49 PM CDT
Astronomical Twilight 5:46 AM CDT 9:17 PM CDT
Moon 8:51 AM CDT (8/27) 9:06 PM CDT (8/27)
Length of Visible Light 13h 37m
Length of Day
12h 49m
Waxing Crescent, 4% of the Moon is Illuminated
Aug 27
Waxing Crescent
Sep 2
First Quarter
Sep 8
Full
Sep 15
Last Quarter
Sep 24
New

Hourly Weather History & Observations

Time (CDT) Temp. Heat Index Dew Point Humidity Pressure Visibility Wind Dir Wind Speed Gust Speed Precip Events Conditions
12:56 AM 81.0 °F 86.7 °F 75.0 °F 82% 29.95 in 10.0 mi East 4.6 mph - N/A   Clear
1:56 AM 79.0 °F - 75.0 °F 88% 29.95 in 10.0 mi NNE 3.5 mph - N/A   Clear
2:56 AM 78.1 °F - 75.0 °F 90% 29.93 in 10.0 mi North 3.5 mph - N/A   Clear
3:56 AM 77.0 °F - 73.9 °F 90% 29.92 in 10.0 mi North 4.6 mph - N/A   Clear
4:56 AM 75.9 °F - 73.0 °F 91% 29.91 in 10.0 mi North 5.8 mph - N/A   Clear
5:56 AM 75.0 °F - 73.0 °F 94% 29.91 in 10.0 mi NNW 5.8 mph - N/A   Clear
6:56 AM 75.0 °F - 73.0 °F 94% 29.93 in 10.0 mi NNW 5.8 mph - N/A   Partly Cloudy
7:56 AM 78.1 °F - 75.0 °F 90% 29.94 in 10.0 mi NNW 5.8 mph - N/A   Partly Cloudy
8:56 AM 84.9 °F 94.1 °F 75.9 °F 74% 29.95 in 10.0 mi North 6.9 mph - N/A   Partly Cloudy
9:56 AM 89.1 °F 100.2 °F 75.9 °F 65% 29.96 in 10.0 mi NNE 10.4 mph - N/A   Scattered Clouds
10:56 AM 91.0 °F 100.4 °F 73.9 °F 57% 29.97 in 10.0 mi NE 9.2 mph - N/A   Mostly Cloudy
11:56 AM 91.9 °F 100.7 °F 73.0 °F 54% 29.97 in 10.0 mi NNE 10.4 mph - N/A   Mostly Cloudy
12:56 PM 96.1 °F 102.9 °F 70.0 °F 43% 29.94 in 10.0 mi North 13.8 mph - N/A   Mostly Cloudy
1:56 PM 98.1 °F 106.5 °F 71.1 °F 42% 29.92 in 10.0 mi North 10.4 mph 20.7 mph N/A   Mostly Cloudy
2:56 PM 98.1 °F 108.0 °F 73.0 °F 44% 29.90 in 10.0 mi ENE 18.4 mph 23.0 mph N/A   Mostly Cloudy
3:56 PM 97.0 °F 104.8 °F 71.1 °F 43% 29.87 in 10.0 mi NE 11.5 mph - N/A   Mostly Cloudy
4:56 PM 95.0 °F 105.2 °F 73.9 °F 50% 29.86 in 10.0 mi ENE 16.1 mph 27.6 mph N/A   Mostly Cloudy
5:56 PM 93.0 °F 101.9 °F 73.0 °F 52% 29.86 in 10.0 mi ENE 19.6 mph 26.5 mph N/A   Mostly Cloudy
6:56 PM 91.0 °F 100.4 °F 73.9 °F 57% 29.86 in 10.0 mi ENE 20.7 mph - N/A   Mostly Cloudy
7:56 PM 88.0 °F 96.5 °F 73.9 °F 63% 29.88 in 10.0 mi ENE 18.4 mph 27.6 mph N/A   Mostly Cloudy
8:56 PM 86.0 °F 93.8 °F 73.9 °F 67% 29.90 in 10.0 mi ENE 16.1 mph - N/A   Mostly Cloudy
9:56 PM 84.9 °F 94.1 °F 75.9 °F 74% 29.92 in 10.0 mi East 16.1 mph - N/A   Mostly Cloudy
10:56 PM 84.0 °F 92.6 °F 75.9 °F 76% 29.91 in 10.0 mi East 12.7 mph - N/A   Scattered Clouds
11:56 PM 82.9 °F 90.8 °F 75.9 °F 79% 29.91 in 10.0 mi East 13.8 mph - N/A   Scattered Clouds